• Em Portugal
  • Lista de países
  • Para 7 dias
  • Temperatura da água
  • Mapas de satélite
  • Mapa do tempo
  • Widgets de tempo
  • user-avatar
    Iniciar Sessão

    Previsão horária em Banja Luka

    Hoje, 26 Setembro, Quarta-feira

    Tempo Temperatura Precipitação Vento Pressão Humidade
    00:00 +4°C° 0 mm 2 m/s 728 mmHg 77%
    01:00 +3°C° 0 mm 2 m/s 728 mmHg 81%
    02:00 +3°C° 0 mm 2 m/s 728 mmHg 84%
    03:00 +3°C° 0 mm 1 m/s 727 mmHg 87%
    04:00 +2°C° 0 mm 1 m/s 727 mmHg 89%
    05:00 +3°C° 0 mm 1 m/s 728 mmHg 86%
    06:00 +4°C° 0 mm 1 m/s 728 mmHg 83%
    07:00 +5°C° 0 mm 1 m/s 729 mmHg 75%
    08:00 +6°C° 0 mm 2 m/s 729 mmHg 66%
    09:00 +8°C° 0 mm 3 m/s 729 mmHg 57%
    10:00 +10°C° 0 mm 4 m/s 729 mmHg 49%
    11:00 +11°C° 0 mm 4 m/s 729 mmHg 46%
    12:00 +12°C° 0 mm 4 m/s 729 mmHg 43%
    13:00 +13°C° 0 mm 4 m/s 729 mmHg 41%
    14:00 +13°C° 0 mm 3 m/s 728 mmHg 42%
    15:00 +13°C° 0 mm 3 m/s 728 mmHg 43%
    16:00 +13°C° 0 mm 2 m/s 727 mmHg 44%
    17:00 +10°C° 0 mm 2 m/s 727 mmHg 51%
    18:00 +9°C° 0 mm 1 m/s 727 mmHg 59%
    19:00 +6°C° 0 mm 1 m/s 727 mmHg 66%
    20:00 +6°C° 0 mm 1 m/s 727 mmHg 67%
    21:00 +6°C° 0 mm 1 m/s 727 mmHg 67%
    22:00 +5°C° 0 mm 1 m/s 727 mmHg 67%
    23:00 +5°C° 0 mm 1 m/s 727 mmHg 66%

    Amanhã, 27 Setembro, Quinta-feira

    Tempo Temperatura Precipitação Vento Pressão Humidade
    00:00 +5°C° 0 mm 1 m/s 727 mmHg 66%
    01:00 +5°C° 0 mm 1 m/s 727 mmHg 65%
    02:00 +5°C° 0 mm 1 m/s 726 mmHg 63%
    03:00 +5°C° 0 mm 1 m/s 726 mmHg 61%
    04:00 +5°C° 0 mm 1 m/s 726 mmHg 60%
    05:00 +6°C° 0 mm 1 m/s 726 mmHg 57%
    06:00 +7°C° 0 mm 1 m/s 726 mmHg 54%
    07:00 +8°C° 0 mm 1 m/s 726 mmHg 51%
    08:00 +11°C° 0 mm 1 m/s 726 mmHg 44%
    09:00 +13°C° 0 mm 1 m/s 726 mmHg 37%
    10:00 +16°C° 0 mm 1 m/s 726 mmHg 30%
    11:00 +17°C° 0 mm 2 m/s 726 mmHg 28%
    12:00 +18°C° 0 mm 2 m/s 726 mmHg 27%
    13:00 +19°C° 0 mm 2 m/s 725 mmHg 26%
    14:00 +18°C° 0 mm 2 m/s 725 mmHg 29%
    15:00 +18°C° 0 mm 2 m/s 724 mmHg 33%
    16:00 +17°C° 0 mm 2 m/s 723 mmHg 36%
    17:00 +15°C° 0 mm 1 m/s 723 mmHg 41%
    18:00 +12°C° 0 mm 1 m/s 723 mmHg 47%
    19:00 +10°C° 0 mm 1 m/s 722 mmHg 52%
    20:00 +9°C° 0 mm 1 m/s 722 mmHg 52%
    21:00 +9°C° 0 mm 1 m/s 722 mmHg 52%
    22:00 +9°C° 0 mm 1 m/s 722 mmHg 51%
    23:00 +8°C° 0 mm 1 m/s 721 mmHg 50%

    Depois de amanhã, 28 Setembro, Sexta-feira

    Tempo Temperatura Precipitação Vento Pressão Humidade
    00:00 +8°C° 0 mm 1 m/s 721 mmHg 49%
    01:00 +8°C° 0 mm 1 m/s 720 mmHg 48%
    02:00 +8°C° 0 mm 1 m/s 720 mmHg 47%
    03:00 +8°C° 0 mm 1 m/s 719 mmHg 46%
    04:00 +8°C° 0 mm 1 m/s 719 mmHg 45%
    05:00 +9°C° 0 mm 1 m/s 718 mmHg 46%
    06:00 +9°C° 0 mm 1 m/s 718 mmHg 47%
    07:00 +10°C° 0 mm 1 m/s 718 mmHg 48%
    08:00 +13°C° 0 mm 1 m/s 718 mmHg 43%
    09:00 +16°C° 0 mm 1 m/s 718 mmHg 38%
    10:00 +20°C° 0 mm 1 m/s 718 mmHg 33%
    11:00 +20°C° 0 mm 2 m/s 718 mmHg 32%
    12:00 +21°C° 0 mm 2 m/s 717 mmHg 32%
    13:00 +23°C° 0 mm 2 m/s 717 mmHg 32%
    14:00 +21°C° 0 mm 2 m/s 716 mmHg 35%
    15:00 +20°C° 0 mm 2 m/s 716 mmHg 38%
    16:00 +20°C° 0 mm 2 m/s 715 mmHg 42%
    17:00 +18°C° 0 mm 1 m/s 715 mmHg 48%
    18:00 +14°C° 0 mm 1 m/s 715 mmHg 53%
    19:00 +12°C° 0 mm 1 m/s 715 mmHg 59%
    20:00 +11°C° 0 mm 1 m/s 715 mmHg 60%
    21:00 +11°C° 0 mm 1 m/s 715 mmHg 60%
    22:00 +10°C° 0 mm 1 m/s 715 mmHg 61%
    23:00 +10°C° 0 mm 1 m/s 715 mmHg 61%

    29 Setembro, Sábado

    Tempo Temperatura Precipitação Vento Pressão Humidade
    00:00 +10°C° 0 mm 1 m/s 715 mmHg 61%
    01:00 +9°C° 0 mm 1 m/s 715 mmHg 61%
    02:00 +9°C° 0 mm 1 m/s 715 mmHg 61%
    03:00 +9°C° 0 mm 1 m/s 715 mmHg 61%
    04:00 +9°C° 0 mm 1 m/s 715 mmHg 61%
    05:00 +9°C° 0 mm 1 m/s 715 mmHg 61%
    06:00 +10°C° 0 mm 1 m/s 716 mmHg 61%
    07:00 +10°C° 0 mm 1 m/s 716 mmHg 61%
    08:00 +12°C° 0 mm 2 m/s 717 mmHg 58%
    09:00 +15°C° 0 mm 2 m/s 717 mmHg 54%
    10:00 +17°C° 0 mm 3 m/s 718 mmHg 50%
    11:00 +17°C° 0 mm 3 m/s 718 mmHg 54%
    12:00 +17°C° 0 mm 4 m/s 718 mmHg 57%
    13:00 +17°C° 0 mm 4 m/s 718 mmHg 60%
    14:00 +15°C° 0 mm 4 m/s 718 mmHg 59%
    15:00 +15°C° 0 mm 4 m/s 718 mmHg 59%
    16:00 +14°C° 0 mm 3 m/s 718 mmHg 58%
    17:00 +13°C° 0 mm 3 m/s 718 mmHg 62%
    18:00 +12°C° 0 mm 2 m/s 719 mmHg 66%
    19:00 +9°C° 0 mm 2 m/s 719 mmHg 71%
    20:00 +8°C° 0 mm 2 m/s 719 mmHg 73%
    21:00 +8°C° 0 mm 1 m/s 719 mmHg 76%
    22:00 +8°C° 0 mm 1 m/s 720 mmHg 78%
    23:00 +8°C° 0 mm 1 m/s 720 mmHg 81%

    30 Setembro, Domingo

    Tempo Temperatura Precipitação Vento Pressão Humidade
    00:00 +8°C° 0 mm 1 m/s 720 mmHg 84%
    01:00 +8°C° 0 mm 1 m/s 719 mmHg 86%
    02:00 +7°C° 0 mm 1 m/s 719 mmHg 89%
    03:00 +6°C° 0 mm 1 m/s 719 mmHg 91%
    04:00 +6°C° 0 mm 1 m/s 719 mmHg 94%
    05:00 +6°C° 0 mm 1 m/s 719 mmHg 91%
    06:00 +6°C° 0 mm 1 m/s 719 mmHg 89%
    07:00 +7°C° 0 mm 1 m/s 719 mmHg 87%
    08:00 +9°C° 0 mm 1 m/s 719 mmHg 74%
    09:00 +10°C° 0 mm 2 m/s 719 mmHg 61%
    10:00 +13°C° 0 mm 2 m/s 719 mmHg 47%
    11:00 +12°C° 0 mm 3 m/s 719 mmHg 45%
    12:00 +13°C° 0 mm 3 m/s 718 mmHg 42%
    13:00 +14°C° 0 mm 3 m/s 718 mmHg 40%
    14:00 +14°C° 0 mm 3 m/s 718 mmHg 42%
    15:00 +15°C° 0 mm 2 m/s 717 mmHg 44%
    16:00 +14°C° 0 mm 2 m/s 717 mmHg 46%
    17:00 +12°C° 0 mm 2 m/s 717 mmHg 55%
    18:00 +10°C° 0 mm 1 m/s 717 mmHg 63%
    19:00 +8°C° 0 mm 1 m/s 717 mmHg 71%
    20:00 +8°C° 0 mm 1 m/s 716 mmHg 73%
    21:00 +7°C° 0 mm 1 m/s 716 mmHg 74%
    22:00 +7°C° 0 mm 1 m/s 716 mmHg 76%
    23:00 +7°C° 0 mm 1 m/s 716 mmHg 76%

    1 Outubro, Segunda-feira

    Tempo Temperatura Precipitação Vento Pressão Humidade
    00:00 +7°C° 0 mm 1 m/s 715 mmHg 77%
    01:00 +6°C° 0 mm 1 m/s 715 mmHg 78%
    02:00 +6°C° 0 mm 1 m/s 715 mmHg 79%
    03:00 +6°C° 0 mm 1 m/s 715 mmHg 80%
    04:00 +6°C° 0 mm 1 m/s 714 mmHg 80%
    05:00 +7°C° 0 mm 1 m/s 714 mmHg 78%
    06:00 +8°C° 0 mm 1 m/s 714 mmHg 76%
    07:00 +9°C° 0 mm 1 m/s 714 mmHg 74%
    08:00 +12°C° 0 mm 1 m/s 714 mmHg 66%
    09:00 +15°C° 0 mm 1 m/s 714 mmHg 57%
    10:00 +18°C° 0 mm 1 m/s 715 mmHg 49%
    11:00 +19°C° 0 mm 1 m/s 714 mmHg 48%
    12:00 +20°C° 0 mm 1 m/s 714 mmHg 47%
    13:00 +20°C° 0 mm 1 m/s 714 mmHg 45%
    14:00 +19°C° 0 mm 1 m/s 713 mmHg 49%
    15:00 +19°C° 0 mm 1 m/s 713 mmHg 53%
    16:00 +18°C° 0 mm 1 m/s 713 mmHg 58%
    17:00 +15°C° 0 mm 1 m/s 713 mmHg 65%
    18:00 +13°C° 0 mm 1 m/s 712 mmHg 72%
    19:00 +10°C° 0 mm 0 m/s 712 mmHg 79%
    20:00 +11°C° 0 mm 1 m/s 713 mmHg 81%
    21:00 +10°C° 0 mm 1 m/s 713 mmHg 83%
    22:00 +10°C° 0 mm 1 m/s 713 mmHg 85%
    23:00 +10°C° 0 mm 1 m/s 713 mmHg 86%
    Mostrar mais